11:48
Airports
History
Links
Donate
Help keep this website running!
PayPal
Bitcoin
This page is community maintained. The information is intended for PC simulator navigation or reference.
Always use approved charts for navigation.
EDGM
Mosbach Lohrbach
Mosbach Lohrbach (EDGM)
Mosbach, Baden-Wurttemberg, Germany (74821)
(U)
Lat/Lng:49° 24' 5.36" N / 9° 7' 17.98" E
49.401489 / 9.121662
Elevation:1083'ft / 330mMSL
ID / ICAO:EDGM
Runways:1
Longest:(15-33) 547.2m / 1,795ft Asphalt
Distance To
Airport ID:
Nearby VORs <50NM
Nearby NDBs
Nearby WeatherUpdated 08-20-17 11:20 GMT
Nearby weather at EDFM, Mannheim City located 27.8 nautical miles from EDGM
Altimeter: 30.24
Visibility: 6.2 statute miles
Wind: 12 knots (260°)
Temp: 20°c 68°f
Humidity: 37.3%

METAR: EDFM 201120Z 26012KT 230V300 CAVOK 20/05 Q1024

(Powered by phpweather)
Runway 15 / 33
Dimensions:547.2 x 20.1m 1795' x 66'ft
Surface:Asphalt
Runway 15 [A]Runway 33 [B]
Heading:149°TH 329°TH
Lat:
Lng:
49° 24' 12.86"N
9° 7' 11.06"E
49° 23' 57.86"N
9° 7' 24.91"E
User Notes and Comments
Google Map
Nearby Airports
(U) Michelstadt Odenwald 20.2 NM
EDFO NNW 340°
(C) Mainbullau 20.5 NM
EDFU N
(U) Ingelfingen Buehlhof 24.7 NM
EDGI ESE 103°
(C) Mannheim City 27.8 NM
EDFM (WX) W 280°
(C) Speyer 31.0 NM
EDRY WSW 257°
(C) Coleman AAF 31.6 NM
ETOR (WX) WNW 290°
(U) SCHWABISCH HALL 35.7 NM
EDTY ESE 123°
VFR Chart
Flight Planning at SkyVector.com